Location: *
(47.8307°S, 178.3954°E)
Time: 08:15:30
(UTC+00:00)

DMSP B5D2-2 - Pass Details

Date: 12 August 2024
Orbit: 787 x 802 km, 98.3° (Epoch: 18 September)

Event Time Altitude Azimuth Distance (km) Brightness Sun altitude
Rises 16:48:05 0° 166° (SSE) 3,354 7.6 -24.7°
Reaches altitude 10° 16:50:27 10° 165° (SSE) 2,414 6.8 -24.3°
Maximum altitude 16:55:49 85° 76° (ENE) 819 4.1 -23.4°
Drops below altitude 10° 17:01:06 10° 346° (NNW) 2,375 6.4 -22.6°
Sets 17:03:24 0° 346° (NNW) 3,294 7.1 -22.2°
